Year,Month,Day,Hour,Minute,Value (Times are PST for windspeed in km/hr)
2016,11,01,00,00,0.60
2016,11,01,00,01,1.10
2016,11,01,00,02,1.00
2016,11,01,00,03,0.80
2016,11,01,00,04,0.00
2016,11,01,00,05,0.00
2016,11,01,00,06,0.00
2016,11,01,00,07,0.00
2016,11,01,00,08,0.00
2016,11,01,00,09,0.80
2016,11,01,00,10,1.00
2016,11,01,00,11,1.40
2016,11,01,00,12,1.10
2016,11,01,00,13,0.90
2016,11,01,00,14,0.70
2016,11,01,00,15,1.10
2016,11,01,00,16,0.70
2016,11,01,00,17,0.00
2016,11,01,00,18,0.00
2016,11,01,00,19,0.00
2016,11,01,00,20,0.00
2016,11,01,00,21,0.00
2016,11,01,00,22,0.00
2016,11,01,00,23,0.00
2016,11,01,00,24,0.00
2016,11,01,00,25,0.00
2016,11,01,00,26,0.00
2016,11,01,00,27,0.00
2016,11,01,00,28,0.00
2016,11,01,00,29,0.30
2016,11,01,00,30,0.80
2016,11,01,00,31,0.90
2016,11,01,00,32,0.70
2016,11,01,00,33,1.10
2016,11,01,00,34,0.90
2016,11,01,00,35,0.00
2016,11,01,00,36,0.20
2016,11,01,00,37,0.20
2016,11,01,00,38,0.00
2016,11,01,00,39,0.20
2016,11,01,00,40,0.60
2016,11,01,00,41,0.60
2016,11,01,00,42,0.90
2016,11,01,00,43,1.00
2016,11,01,00,44,0.90
2016,11,01,00,45,0.20
2016,11,01,00,46,0.20
2016,11,01,00,47,0.00
2016,11,01,00,48,0.50
2016,11,01,00,49,0.00
2016,11,01,00,50,0.50
2016,11,01,00,51,0.80
2016,11,01,00,52,1.10
2016,11,01,00,53,0.20
2016,11,01,00,54,0.90
2016,11,01,00,55,1.30
2016,11,01,00,56,0.80
2016,11,01,00,57,0.30
2016,11,01,00,58,0.20
2016,11,01,00,59,0.00
2016,11,01,01,00,0.00
2016,11,01,01,01,0.00
2016,11,01,01,02,0.00
2016,11,01,01,03,0.10
2016,11,01,01,04,1.30
2016,11,01,01,05,1.30
2016,11,01,01,06,1.10
2016,11,01,01,07,0.80
2016,11,01,01,08,1.30
2016,11,01,01,09,1.30
2016,11,01,01,10,1.10
2016,11,01,01,11,0.80
2016,11,01,01,12,1.20
2016,11,01,01,13,0.90
2016,11,01,01,14,0.70
2016,11,01,01,15,1.60
2016,11,01,01,16,1.50
2016,11,01,01,17,2.00
2016,11,01,01,18,1.90
2016,11,01,01,19,1.70
2016,11,01,01,20,1.60
2016,11,01,01,21,1.10
2016,11,01,01,22,1.20
2016,11,01,01,23,1.10
2016,11,01,01,24,1.50
2016,11,01,01,25,0.60
2016,11,01,01,26,1.50
2016,11,01,01,27,1.20
2016,11,01,01,28,1.60
2016,11,01,01,29,1.30
2016,11,01,01,30,1.50
2016,11,01,01,31,1.60
2016,11,01,01,32,1.60
2016,11,01,01,33,1.60
2016,11,01,01,34,1.10
2016,11,01,01,35,1.10
2016,11,01,01,36,0.60
2016,11,01,01,37,0.50
2016,11,01,01,38,0.30
2016,11,01,01,39,0.10
2016,11,01,01,40,1.00
2016,11,01,01,41,0.70
2016,11,01,01,42,0.30
2016,11,01,01,43,0.20
2016,11,01,01,44,0.00
2016,11,01,01,45,1.10
2016,11,01,01,46,0.60
2016,11,01,01,47,0.30
2016,11,01,01,48,0.30
2016,11,01,01,49,0.40
2016,11,01,01,50,0.00
2016,11,01,01,51,0.00
2016,11,01,01,52,0.80
2016,11,01,01,53,0.20
2016,11,01,01,54,0.00
2016,11,01,01,55,0.60
2016,11,01,01,56,0.90
2016,11,01,01,57,1.20
2016,11,01,01,58,0.80
2016,11,01,01,59,1.40
2016,11,01,02,00,1.00
2016,11,01,02,01,0.00
2016,11,01,02,02,0.00
2016,11,01,02,03,0.30
2016,11,01,02,04,0.20
2016,11,01,02,05,0.50
2016,11,01,02,06,0.40
2016,11,01,02,07,0.60
2016,11,01,02,08,0.00
2016,11,01,02,09,0.00
2016,11,01,02,10,0.00
2016,11,01,02,11,0.00
2016,11,01,02,12,0.00
2016,11,01,02,13,0.00
2016,11,01,02,14,0.00
2016,11,01,02,15,0.00
2016,11,01,02,16,0.00
2016,11,01,02,17,0.00
2016,11,01,02,18,0.00
2016,11,01,02,19,0.00
2016,11,01,02,20,0.00
2016,11,01,02,21,0.00
2016,11,01,02,22,0.00
2016,11,01,02,23,0.00
2016,11,01,02,24,0.00
2016,11,01,02,25,0.00
2016,11,01,02,26,0.00
2016,11,01,02,27,0.50
2016,11,01,02,28,1.10
2016,11,01,02,29,1.50
2016,11,01,02,30,1.20
2016,11,01,02,31,1.10
2016,11,01,02,32,1.20
2016,11,01,02,33,1.20
2016,11,01,02,34,1.50
2016,11,01,02,35,1.40
2016,11,01,02,36,1.10
2016,11,01,02,37,0.70
2016,11,01,02,38,1.20
2016,11,01,02,39,0.90
2016,11,01,02,40,1.40
2016,11,01,02,41,1.10
2016,11,01,02,42,1.60
2016,11,01,02,43,1.20
2016,11,01,02,44,1.50
2016,11,01,02,45,1.60
2016,11,01,02,46,1.50
2016,11,01,02,47,1.00
2016,11,01,02,48,0.20
2016,11,01,02,49,0.90
2016,11,01,02,50,1.10
2016,11,01,02,51,0.50
2016,11,01,02,52,0.00
2016,11,01,02,53,0.00
2016,11,01,02,54,0.00
2016,11,01,02,55,0.00
2016,11,01,02,56,0.00
2016,11,01,02,57,0.00
2016,11,01,02,58,0.00
2016,11,01,02,59,0.00
2016,11,01,03,00,0.00
2016,11,01,03,01,0.00
2016,11,01,03,02,0.70
2016,11,01,03,03,1.10
2016,11,01,03,04,1.30
2016,11,01,03,05,1.20
2016,11,01,03,06,1.20
2016,11,01,03,07,0.80
2016,11,01,03,08,0.00
2016,11,01,03,09,0.00
2016,11,01,03,10,0.00
2016,11,01,03,11,0.00
2016,11,01,03,12,0.00
2016,11,01,03,13,0.00
2016,11,01,03,14,0.00
2016,11,01,03,15,0.00
2016,11,01,03,16,0.00
2016,11,01,03,17,0.00
2016,11,01,03,18,0.00
2016,11,01,03,19,0.00
2016,11,01,03,20,0.00
2016,11,01,03,21,0.00
2016,11,01,03,22,0.00
2016,11,01,03,23,0.00
2016,11,01,03,24,0.00
2016,11,01,03,25,0.20
2016,11,01,03,26,1.10
2016,11,01,03,27,1.00
2016,11,01,03,28,0.60
2016,11,01,03,29,0.60
2016,11,01,03,30,0.00
2016,11,01,03,31,0.00
2016,11,01,03,32,0.00
2016,11,01,03,33,0.00
2016,11,01,03,34,0.00
2016,11,01,03,35,0.00
2016,11,01,03,36,0.00
2016,11,01,03,37,0.00
2016,11,01,03,38,0.00
2016,11,01,03,39,0.00
2016,11,01,03,40,0.00
2016,11,01,03,41,0.00
2016,11,01,03,42,0.00
2016,11,01,03,43,0.00
2016,11,01,03,44,0.00
2016,11,01,03,45,0.00
2016,11,01,03,46,0.00
2016,11,01,03,47,1.30
2016,11,01,03,48,1.30
2016,11,01,03,49,0.20
2016,11,01,03,50,0.80
2016,11,01,03,51,0.10
2016,11,01,03,52,0.10
2016,11,01,03,53,0.70
2016,11,01,03,54,0.30
2016,11,01,03,55,0.30
2016,11,01,03,56,0.20
2016,11,01,03,57,0.90
2016,11,01,03,58,0.70
2016,11,01,03,59,0.30
2016,11,01,04,00,0.00
2016,11,01,04,01,0.00
2016,11,01,04,02,0.00
2016,11,01,04,03,0.20
2016,11,01,04,04,0.70
2016,11,01,04,05,1.20
2016,11,01,04,06,1.10
2016,11,01,04,07,1.20
2016,11,01,04,08,0.10
2016,11,01,04,09,1.00
2016,11,01,04,10,1.30
2016,11,01,04,11,1.10
2016,11,01,04,12,1.10
2016,11,01,04,13,1.50
2016,11,01,04,14,0.30
2016,11,01,04,15,0.00
2016,11,01,04,16,0.00
2016,11,01,04,17,0.00
2016,11,01,04,18,0.00
2016,11,01,04,19,0.00
2016,11,01,04,20,0.00
2016,11,01,04,21,0.00
2016,11,01,04,22,0.10
2016,11,01,04,23,0.70
2016,11,01,04,24,1.30
2016,11,01,04,25,0.40
2016,11,01,04,26,1.00
2016,11,01,04,27,1.50
2016,11,01,04,28,0.20
2016,11,01,04,29,0.60
2016,11,01,04,30,1.10
2016,11,01,04,31,0.90
2016,11,01,04,32,1.50
2016,11,01,04,33,1.50
2016,11,01,04,34,1.20
2016,11,01,04,35,1.20
2016,11,01,04,36,0.60
2016,11,01,04,37,0.80
2016,11,01,04,38,0.90
2016,11,01,04,39,0.60
2016,11,01,04,40,0.60
2016,11,01,04,41,0.80
2016,11,01,04,42,1.40
2016,11,01,04,43,1.10
2016,11,01,04,44,1.30
2016,11,01,04,45,1.10
2016,11,01,04,46,1.10
2016,11,01,04,47,0.70
2016,11,01,04,48,1.30
2016,11,01,04,49,0.90
2016,11,01,04,50,0.60
2016,11,01,04,51,0.00
2016,11,01,04,52,0.00
2016,11,01,04,53,0.00
2016,11,01,04,54,0.00
2016,11,01,04,55,0.00
2016,11,01,04,56,0.00
2016,11,01,04,57,0.20
2016,11,01,04,58,0.60
2016,11,01,04,59,0.60
2016,11,01,05,00,0.00
2016,11,01,05,01,0.00
2016,11,01,05,02,0.00
2016,11,01,05,03,0.30
2016,11,01,05,04,0.60
2016,11,01,05,05,1.10
2016,11,01,05,06,0.80
2016,11,01,05,07,0.90
2016,11,01,05,08,1.30
2016,11,01,05,09,1.30
2016,11,01,05,10,1.00
2016,11,01,05,11,1.20
2016,11,01,05,12,1.10
2016,11,01,05,13,0.60
2016,11,01,05,14,1.00
2016,11,01,05,15,1.50
2016,11,01,05,16,0.90
2016,11,01,05,17,1.50
2016,11,01,05,18,0.70
2016,11,01,05,19,0.80
2016,11,01,05,20,0.60
2016,11,01,05,21,0.00
2016,11,01,05,22,0.00
2016,11,01,05,23,0.00
2016,11,01,05,24,0.00
2016,11,01,05,25,0.00
2016,11,01,05,26,0.00
2016,11,01,05,27,0.00
2016,11,01,05,28,0.00
2016,11,01,05,29,0.00
2016,11,01,05,30,0.00
2016,11,01,05,31,0.00
2016,11,01,05,32,0.00
2016,11,01,05,33,0.00
2016,11,01,05,34,0.00
2016,11,01,05,35,0.00
2016,11,01,05,36,0.00
2016,11,01,05,37,0.00
2016,11,01,05,38,0.00
2016,11,01,05,39,0.00
2016,11,01,05,40,0.00
2016,11,01,05,41,0.00
2016,11,01,05,42,0.00
2016,11,01,05,43,0.00
2016,11,01,05,44,0.00
2016,11,01,05,45,0.00
2016,11,01,05,46,0.60
2016,11,01,05,47,1.60
2016,11,01,05,48,1.60
2016,11,01,05,49,1.00
2016,11,01,05,50,0.90
2016,11,01,05,51,1.40
2016,11,01,05,52,1.00
2016,11,01,05,53,0.00
2016,11,01,05,54,0.10
2016,11,01,05,55,0.90
2016,11,01,05,56,1.30
2016,11,01,05,57,1.60
2016,11,01,05,58,1.40
2016,11,01,05,59,0.60
2016,11,01,06,00,0.70
2016,11,01,06,01,0.20
2016,11,01,06,02,1.20
2016,11,01,06,03,0.50
2016,11,01,06,04,0.00
2016,11,01,06,05,0.00
2016,11,01,06,06,0.00
2016,11,01,06,07,0.00
2016,11,01,06,08,0.00
2016,11,01,06,09,0.00
2016,11,01,06,10,0.00
2016,11,01,06,11,0.00
2016,11,01,06,12,0.00
2016,11,01,06,13,0.00
2016,11,01,06,14,0.00
2016,11,01,06,15,0.00
2016,11,01,06,16,0.00
2016,11,01,06,17,0.00
2016,11,01,06,18,0.00
2016,11,01,06,19,0.00
2016,11,01,06,20,0.00
2016,11,01,06,21,0.30
2016,11,01,06,22,1.00
2016,11,01,06,23,1.10
2016,11,01,06,24,0.60
2016,11,01,06,25,0.20
2016,11,01,06,26,0.10
2016,11,01,06,27,0.20
2016,11,01,06,28,0.60
2016,11,01,06,29,0.90
2016,11,01,06,30,0.10
2016,11,01,06,31,1.10
2016,11,01,06,32,1.50
2016,11,01,06,33,0.20
2016,11,01,06,34,0.00
2016,11,01,06,35,0.00
2016,11,01,06,36,0.00
2016,11,01,06,37,0.00
2016,11,01,06,38,0.00
2016,11,01,06,39,0.00
2016,11,01,06,40,0.00
2016,11,01,06,41,0.00
2016,11,01,06,42,0.00
2016,11,01,06,43,0.00
2016,11,01,06,44,0.00
2016,11,01,06,45,0.00
2016,11,01,06,46,0.00
2016,11,01,06,47,0.00
2016,11,01,06,48,0.00
2016,11,01,06,49,0.00
2016,11,01,06,50,0.00
2016,11,01,06,51,0.00
2016,11,01,06,52,0.00
2016,11,01,06,53,0.00
2016,11,01,06,54,0.00
2016,11,01,06,55,0.00
2016,11,01,06,56,0.40
2016,11,01,06,57,0.50
2016,11,01,06,58,0.00
2016,11,01,06,59,0.00
2016,11,01,07,00,0.00
2016,11,01,07,01,0.60
2016,11,01,07,02,1.40
2016,11,01,07,03,0.40
2016,11,01,07,04,0.40
2016,11,01,07,05,0.00
2016,11,01,07,06,0.00
2016,11,01,07,07,0.00
2016,11,01,07,08,0.00
2016,11,01,07,09,0.00
2016,11,01,07,10,0.00
2016,11,01,07,11,0.00
2016,11,01,07,12,0.00
2016,11,01,07,13,0.00
2016,11,01,07,14,0.00
2016,11,01,07,15,0.00
2016,11,01,07,16,0.00
2016,11,01,07,17,0.00
2016,11,01,07,18,0.00
2016,11,01,07,19,0.00
2016,11,01,07,20,0.00
2016,11,01,07,21,0.00
2016,11,01,07,22,0.00
2016,11,01,07,23,0.00
2016,11,01,07,24,0.00
2016,11,01,07,25,0.00
2016,11,01,07,26,0.00
2016,11,01,07,27,0.00
2016,11,01,07,28,0.00
2016,11,01,07,29,0.00
2016,11,01,07,30,0.00
2016,11,01,07,31,0.00
2016,11,01,07,32,0.00
2016,11,01,07,33,0.00
2016,11,01,07,34,0.00
2016,11,01,07,35,0.00
2016,11,01,07,36,0.00
2016,11,01,07,37,0.00
2016,11,01,07,38,0.00
2016,11,01,07,39,0.00
2016,11,01,07,40,0.00
2016,11,01,07,41,0.00
2016,11,01,07,42,0.00
2016,11,01,07,43,0.00
2016,11,01,07,44,0.00
2016,11,01,07,45,0.00
2016,11,01,07,46,0.00
2016,11,01,07,47,0.00
2016,11,01,07,48,0.00
2016,11,01,07,49,0.00
2016,11,01,07,50,0.00
2016,11,01,07,51,0.00
2016,11,01,07,52,1.60
2016,11,01,07,53,1.60
2016,11,01,07,54,0.70
2016,11,01,07,55,1.10
2016,11,01,07,56,1.10
2016,11,01,07,57,0.60
2016,11,01,07,58,0.00
2016,11,01,07,59,0.00
2016,11,01,08,00,0.00
2016,11,01,08,01,0.00
2016,11,01,08,02,0.00
2016,11,01,08,03,0.00
2016,11,01,08,04,0.00
2016,11,01,08,05,0.00
2016,11,01,08,06,0.00
2016,11,01,08,07,0.00
2016,11,01,09,15,1.00
2016,11,01,09,16,0.90
2016,11,01,09,17,1.50
2016,11,01,09,18,1.10
2016,11,01,09,19,1.40
2016,11,01,09,20,0.70
2016,11,01,09,21,1.20
2016,11,01,09,22,0.60
2016,11,01,09,23,1.20
2016,11,01,09,24,1.60
2016,11,01,09,25,1.50
2016,11,01,09,26,1.60
2016,11,01,09,27,1.60
2016,11,01,09,28,1.50
2016,11,01,09,29,1.10
2016,11,01,09,30,0.90
2016,11,01,09,31,1.60
2016,11,01,09,32,0.50
2016,11,01,09,33,0.70
2016,11,01,09,34,1.50
2016,11,01,09,35,1.40
2016,11,01,09,36,1.60
2016,11,01,09,37,1.50
2016,11,01,09,38,2.20
2016,11,01,09,39,1.60
2016,11,01,09,40,1.50
2016,11,01,09,41,1.70
2016,11,01,09,42,1.60
2016,11,01,09,43,1.50
2016,11,01,09,44,1.70
2016,11,01,09,45,1.20
2016,11,01,09,46,1.40
2016,11,01,09,47,1.30
2016,11,01,09,48,1.50
2016,11,01,09,49,1.30
2016,11,01,09,50,1.60
2016,11,01,09,51,1.70
2016,11,01,09,52,1.80
2016,11,01,09,53,2.00
2016,11,01,09,54,1.60
2016,11,01,09,55,1.90
2016,11,01,09,56,2.30
2016,11,01,09,57,2.40
2016,11,01,09,58,1.60
2016,11,01,09,59,1.80
2016,11,01,10,00,3.20
2016,11,01,10,01,3.80
2016,11,01,10,02,3.90
2016,11,01,10,03,3.60
2016,11,01,10,04,2.50
2016,11,01,10,05,3.10
2016,11,01,10,06,3.60
2016,11,01,10,07,3.50
2016,11,01,10,08,3.40
2016,11,01,10,09,2.80
2016,11,01,10,10,3.10
2016,11,01,10,11,3.70
2016,11,01,10,12,1.70
2016,11,01,10,13,2.10
2016,11,01,10,14,2.30
2016,11,01,10,15,1.80
2016,11,01,10,16,1.80
2016,11,01,10,17,1.40
2016,11,01,10,18,1.80
2016,11,01,10,19,4.50
2016,11,01,10,20,2.50
2016,11,01,10,21,2.50
2016,11,01,10,22,3.10
2016,11,01,10,23,2.70
2016,11,01,10,24,2.20
2016,11,01,10,25,2.00
2016,11,01,10,26,2.70
2016,11,01,10,27,1.30
2016,11,01,10,28,1.70
2016,11,01,10,29,1.70
2016,11,01,10,30,2.30
2016,11,01,10,31,2.30
2016,11,01,10,32,3.70
2016,11,01,10,33,4.10
2016,11,01,10,34,2.30
2016,11,01,10,35,1.90
2016,11,01,10,36,2.30
2016,11,01,10,37,2.20
2016,11,01,10,38,2.40
2016,11,01,10,39,2.30
2016,11,01,10,40,3.50
2016,11,01,10,41,4.10
2016,11,01,10,42,3.30
2016,11,01,10,43,3.60
2016,11,01,10,44,3.70
2016,11,01,10,45,3.50
2016,11,01,10,46,3.40
2016,11,01,10,47,3.70
2016,11,01,10,48,3.30
2016,11,01,10,49,3.50
2016,11,01,10,50,3.50
2016,11,01,10,51,3.20
2016,11,01,10,52,2.90
2016,11,01,10,53,2.50
2016,11,01,10,54,3.00
2016,11,01,10,55,3.00
2016,11,01,10,56,3.90
2016,11,01,10,57,4.40
2016,11,01,10,58,3.70
2016,11,01,10,59,3.50
2016,11,01,11,00,3.80
2016,11,01,11,01,4.30
2016,11,01,11,02,3.70
2016,11,01,11,03,3.90
2016,11,01,11,04,4.10
2016,11,01,11,05,5.80
2016,11,01,11,06,4.30
2016,11,01,11,07,4.10
2016,11,01,11,08,4.30
2016,11,01,11,09,3.90
2016,11,01,11,10,5.50
2016,11,01,11,11,3.90
2016,11,01,11,12,4.00
2016,11,01,11,13,4.10
2016,11,01,11,14,3.40
2016,11,01,11,15,2.70
2016,11,01,11,16,3.30
2016,11,01,11,17,3.40
2016,11,01,11,18,3.40
2016,11,01,11,19,3.00
2016,11,01,11,20,3.10
2016,11,01,11,21,3.60
2016,11,01,11,22,3.00
2016,11,01,11,23,3.00
2016,11,01,11,24,3.00
2016,11,01,11,25,2.90
2016,11,01,11,26,4.10
2016,11,01,11,27,3.80
2016,11,01,11,28,4.50
2016,11,01,11,29,5.60
2016,11,01,11,30,3.50
2016,11,01,11,31,4.40
2016,11,01,11,32,6.10
2016,11,01,11,33,6.90
2016,11,01,11,34,4.90
2016,11,01,11,35,6.20
2016,11,01,11,36,10.90
2016,11,01,11,37,3.80
2016,11,01,11,38,5.40
2016,11,01,11,39,5.90
2016,11,01,11,40,8.30
2016,11,01,11,41,4.30
2016,11,01,11,42,3.90
2016,11,01,11,43,8.80
2016,11,01,11,44,10.80
2016,11,01,11,45,10.40
2016,11,01,11,46,11.70
2016,11,01,11,47,11.70
2016,11,01,11,48,12.30
2016,11,01,11,49,14.50
2016,11,01,11,50,11.70
2016,11,01,11,51,11.80
2016,11,01,11,52,9.70
2016,11,01,11,53,7.60
2016,11,01,11,54,7.20
2016,11,01,11,55,7.00
2016,11,01,11,56,6.30
2016,11,01,11,57,8.40
2016,11,01,11,58,7.10
2016,11,01,11,59,7.40
2016,11,01,12,00,8.60
2016,11,01,12,01,5.60
2016,11,01,12,02,10.40
2016,11,01,12,03,6.30
2016,11,01,12,04,4.30
2016,11,01,12,05,3.60
2016,11,01,12,06,4.20
2016,11,01,12,07,9.20
2016,11,01,12,08,6.20
2016,11,01,12,09,6.50
2016,11,01,12,10,4.70
2016,11,01,12,11,3.40
2016,11,01,12,12,5.00
2016,11,01,12,13,4.80
2016,11,01,12,14,7.50
2016,11,01,12,15,6.10
2016,11,01,12,16,6.10
2016,11,01,12,17,4.60
2016,11,01,12,18,4.40
2016,11,01,12,19,4.80
2016,11,01,12,20,9.70
2016,11,01,12,21,4.50
2016,11,01,12,22,3.00
2016,11,01,12,23,5.80
2016,11,01,12,24,10.60
2016,11,01,12,25,7.60
2016,11,01,12,26,8.90
2016,11,01,12,27,9.30
2016,11,01,12,28,10.00
2016,11,01,12,29,9.90
2016,11,01,12,30,7.20
2016,11,01,12,31,11.00
2016,11,01,12,32,10.30
2016,11,01,12,33,8.40
2016,11,01,12,34,9.00
2016,11,01,12,35,10.80
2016,11,01,12,36,13.40
2016,11,01,12,37,9.40
2016,11,01,12,38,7.40
2016,11,01,12,39,11.00
2016,11,01,12,40,17.70
2016,11,01,12,41,17.10
2016,11,01,12,42,8.70
2016,11,01,12,43,6.50
2016,11,01,12,44,6.40
2016,11,01,12,45,9.30
2016,11,01,12,46,13.70
2016,11,01,12,47,12.30
2016,11,01,12,48,7.70
2016,11,01,12,49,5.10
2016,11,01,12,50,8.50
2016,11,01,12,51,9.50
2016,11,01,12,52,8.10
2016,11,01,12,53,7.60
2016,11,01,12,54,9.30
2016,11,01,12,55,14.20
2016,11,01,12,56,9.50
2016,11,01,12,57,12.80
2016,11,01,12,58,9.40
2016,11,01,12,59,12.30
2016,11,01,13,00,12.40
2016,11,01,13,01,12.90
2016,11,01,13,02,12.60
2016,11,01,13,03,14.20
2016,11,01,13,04,20.90
2016,11,01,13,05,13.00
2016,11,01,13,06,14.40
2016,11,01,13,07,10.60
2016,11,01,13,08,17.10
2016,11,01,13,09,15.90
2016,11,01,13,10,19.00
2016,11,01,13,11,14.70
2016,11,01,13,12,16.00
2016,11,01,13,13,11.40
2016,11,01,13,14,9.70
2016,11,01,13,15,16.00
2016,11,01,13,16,12.30
2016,11,01,13,17,12.20
2016,11,01,13,18,9.30
2016,11,01,13,19,6.40
2016,11,01,13,20,15.20
2016,11,01,13,21,8.80
2016,11,01,13,22,5.30
2016,11,01,13,23,12.70
2016,11,01,13,24,7.20
2016,11,01,13,25,8.90
2016,11,01,13,26,17.50
2016,11,01,13,27,16.70
2016,11,01,13,28,19.80
2016,11,01,13,29,14.20
2016,11,01,13,30,22.00
2016,11,01,13,31,13.80
2016,11,01,13,32,10.60
2016,11,01,13,33,9.80
2016,11,01,13,34,11.70
2016,11,01,13,35,13.70
2016,11,01,13,36,17.50
2016,11,01,13,37,12.20
2016,11,01,13,38,6.70
2016,11,01,13,39,6.30
2016,11,01,13,40,5.90
2016,11,01,13,41,12.70
2016,11,01,13,42,15.20
2016,11,01,13,43,10.30
2016,11,01,13,44,4.10
2016,11,01,13,45,6.10
2016,11,01,13,46,4.90
2016,11,01,13,47,6.80
2016,11,01,13,48,5.50
2016,11,01,13,49,7.40
2016,11,01,13,50,5.40
2016,11,01,13,51,10.10
2016,11,01,13,52,8.90
2016,11,01,13,53,6.40
2016,11,01,13,54,8.30
2016,11,01,13,55,8.00
2016,11,01,13,56,8.40
2016,11,01,13,57,8.70
2016,11,01,13,58,6.80
2016,11,01,13,59,11.60
2016,11,01,14,00,12.70
2016,11,01,14,01,6.80
2016,11,01,14,02,6.20
2016,11,01,14,03,7.10
2016,11,01,14,04,5.60
2016,11,01,14,05,7.20
2016,11,01,14,06,8.10
2016,11,01,14,07,6.50
2016,11,01,14,08,7.10
2016,11,01,14,09,7.50
2016,11,01,14,10,6.40
2016,11,01,14,11,6.70
2016,11,01,14,12,8.70
2016,11,01,14,13,15.00
2016,11,01,14,14,8.40
2016,11,01,14,15,6.30
2016,11,01,14,16,4.10
2016,11,01,14,17,7.40
2016,11,01,14,18,6.00
2016,11,01,14,19,13.90
2016,11,01,14,20,9.50
2016,11,01,14,21,10.70
2016,11,01,14,22,11.30
2016,11,01,14,23,3.70
2016,11,01,14,24,4.30
2016,11,01,14,25,6.30
2016,11,01,14,26,6.40
2016,11,01,14,27,5.10
2016,11,01,14,28,5.80
2016,11,01,14,29,5.50
2016,11,01,14,30,4.20
2016,11,01,14,31,6.80
2016,11,01,14,32,7.30
2016,11,01,14,33,9.30
2016,11,01,14,34,12.30
2016,11,01,14,35,12.40
2016,11,01,14,36,8.00
2016,11,01,14,37,14.20
2016,11,01,14,38,6.40
2016,11,01,14,39,6.30
2016,11,01,14,40,10.40
2016,11,01,14,41,9.60
2016,11,01,14,42,12.50
2016,11,01,14,43,10.90
2016,11,01,14,44,6.40
2016,11,01,14,45,8.50
2016,11,01,14,46,15.50
2016,11,01,14,47,16.50
2016,11,01,14,48,13.60
2016,11,01,14,49,13.80
2016,11,01,14,50,9.80
2016,11,01,14,51,12.30
2016,11,01,14,52,12.90
2016,11,01,14,53,14.80
2016,11,01,14,54,11.20
2016,11,01,14,55,17.90
2016,11,01,14,56,17.30
2016,11,01,14,57,20.00
2016,11,01,14,58,12.90
2016,11,01,14,59,18.80
2016,11,01,15,00,19.30
2016,11,01,15,01,14.80
2016,11,01,15,02,13.30
2016,11,01,15,03,13.30
2016,11,01,15,04,19.20
2016,11,01,15,05,13.60
2016,11,01,15,06,13.40
2016,11,01,15,07,11.00
2016,11,01,15,08,18.40
2016,11,01,15,09,14.70
2016,11,01,15,10,11.70
2016,11,01,15,11,10.30
2016,11,01,15,12,5.70
2016,11,01,15,13,12.70
2016,11,01,15,14,24.50
2016,11,01,15,15,19.30
2016,11,01,15,16,17.40
2016,11,01,15,17,17.70
2016,11,01,15,18,20.90
2016,11,01,15,19,10.10
2016,11,01,15,20,12.90
2016,11,01,15,21,8.10
2016,11,01,15,22,6.90
2016,11,01,15,23,8.70
2016,11,01,15,24,8.90
2016,11,01,15,25,7.90
2016,11,01,15,26,11.70
2016,11,01,15,27,5.60
2016,11,01,15,28,6.40
2016,11,01,15,29,7.90
2016,11,01,15,30,4.60
2016,11,01,15,31,6.80
2016,11,01,15,32,12.80
2016,11,01,15,33,5.00
2016,11,01,15,34,4.70
2016,11,01,15,35,4.90
2016,11,01,15,36,5.40
2016,11,01,15,37,7.40
2016,11,01,15,38,12.10
2016,11,01,15,39,3.90
2016,11,01,15,40,4.20
2016,11,01,15,41,5.20
2016,11,01,15,42,4.90
2016,11,01,15,43,3.20
2016,11,01,15,44,4.40
2016,11,01,15,45,4.30
2016,11,01,15,46,5.00
2016,11,01,15,47,10.10
2016,11,01,15,48,6.80
2016,11,01,15,49,10.40
2016,11,01,15,50,6.50
2016,11,01,15,51,6.90
2016,11,01,15,52,4.80
2016,11,01,15,53,4.30
2016,11,01,15,54,6.30
2016,11,01,15,55,5.00
2016,11,01,15,56,3.10
2016,11,01,15,57,4.30
2016,11,01,15,58,7.60
2016,11,01,15,59,9.20
2016,11,01,16,00,5.40
2016,11,01,16,01,4.40
2016,11,01,16,02,4.70
2016,11,01,16,03,7.30
2016,11,01,16,04,6.70
2016,11,01,16,05,6.80
2016,11,01,16,06,5.80
2016,11,01,16,07,5.00
2016,11,01,16,08,7.20
2016,11,01,16,09,11.00
2016,11,01,16,10,8.70
2016,11,01,16,11,6.40
2016,11,01,16,12,10.40
2016,11,01,16,13,16.20
2016,11,01,16,14,7.60
2016,11,01,16,15,6.80
2016,11,01,16,16,6.50
2016,11,01,16,17,3.70
2016,11,01,16,18,8.40
2016,11,01,16,19,12.70
2016,11,01,16,20,18.30
2016,11,01,16,21,8.20
2016,11,01,16,22,14.80
2016,11,01,16,23,15.60
2016,11,01,16,24,11.40
2016,11,01,16,25,15.20
2016,11,01,16,26,24.70
2016,11,01,16,27,21.70
2016,11,01,16,28,20.80
2016,11,01,16,29,17.00
2016,11,01,16,30,18.20
2016,11,01,16,31,21.80
2016,11,01,16,32,20.70
2016,11,01,16,33,14.80
2016,11,01,16,34,13.80
2016,11,01,16,35,16.80
2016,11,01,16,36,13.00
2016,11,01,16,37,13.40
2016,11,01,16,38,11.80
2016,11,01,16,39,12.60
2016,11,01,16,40,13.50
2016,11,01,16,41,8.90
2016,11,01,16,42,12.40
2016,11,01,16,43,12.90
2016,11,01,16,44,17.90
2016,11,01,16,45,17.70
2016,11,01,16,46,13.80
2016,11,01,16,47,20.90
2016,11,01,16,48,11.30
2016,11,01,16,49,10.50
2016,11,01,16,50,13.60
2016,11,01,16,51,15.40
2016,11,01,16,52,17.40
2016,11,01,16,53,18.70
2016,11,01,16,54,15.90
2016,11,01,16,55,18.30
2016,11,01,16,56,14.00
2016,11,01,16,57,8.90
2016,11,01,16,58,14.50
2016,11,01,16,59,17.50
2016,11,01,17,00,21.00
2016,11,01,17,01,14.40
2016,11,01,17,02,16.90
2016,11,01,17,03,16.40
2016,11,01,17,04,19.80
2016,11,01,17,05,20.60
2016,11,01,17,06,13.30
2016,11,01,17,07,17.30
2016,11,01,17,08,17.30
2016,11,01,17,09,14.20
2016,11,01,17,10,20.40
2016,11,01,17,11,12.20
2016,11,01,17,12,15.70
2016,11,01,17,13,9.90
2016,11,01,17,14,16.40
2016,11,01,17,15,22.40
2016,11,01,17,16,21.20
2016,11,01,17,17,10.10
2016,11,01,17,18,16.70
2016,11,01,17,19,15.80
2016,11,01,17,20,18.30
2016,11,01,17,21,10.30
2016,11,01,17,22,9.60
2016,11,01,17,23,15.30
2016,11,01,17,24,21.70
2016,11,01,17,25,18.00
2016,11,01,17,26,17.70
2016,11,01,17,27,19.10
2016,11,01,17,28,14.50
2016,11,01,17,29,10.40
2016,11,01,17,30,8.60
2016,11,01,17,31,11.80
2016,11,01,17,32,12.20
2016,11,01,17,33,16.20
2016,11,01,17,34,14.40
2016,11,01,17,35,18.20
2016,11,01,17,36,18.70
2016,11,01,17,37,13.00
2016,11,01,17,38,20.10
2016,11,01,17,39,19.50
2016,11,01,17,40,9.40
2016,11,01,17,41,5.00
2016,11,01,17,42,8.90
2016,11,01,17,43,16.90
2016,11,01,17,44,14.00
2016,11,01,17,45,17.20
2016,11,01,17,46,16.30
2016,11,01,17,47,6.50
2016,11,01,17,48,5.40
2016,11,01,17,49,5.50
2016,11,01,17,50,7.80
2016,11,01,17,51,6.00
2016,11,01,17,52,9.10
2016,11,01,17,53,15.70
2016,11,01,17,54,13.20
2016,11,01,17,55,15.30
2016,11,01,17,56,14.90
2016,11,01,17,57,16.10
2016,11,01,17,58,15.20
2016,11,01,17,59,15.00
2016,11,01,18,00,16.90
2016,11,01,18,01,15.80
2016,11,01,18,02,19.80
2016,11,01,18,03,14.00
2016,11,01,18,04,18.50
2016,11,01,18,05,23.10
2016,11,01,18,06,15.90
2016,11,01,18,07,15.40
2016,11,01,18,08,19.60
2016,11,01,18,09,15.90
2016,11,01,18,10,16.50
2016,11,01,18,11,19.50
2016,11,01,18,12,12.00
2016,11,01,18,13,7.10
2016,11,01,18,14,8.10
2016,11,01,18,15,8.70
2016,11,01,18,16,11.40
2016,11,01,18,17,10.20
2016,11,01,18,18,8.60
2016,11,01,18,19,10.10
2016,11,01,18,20,13.90
2016,11,01,18,21,8.20
2016,11,01,18,22,7.70
2016,11,01,18,23,8.10
2016,11,01,18,24,6.80
2016,11,01,18,25,8.90
2016,11,01,18,26,6.10
2016,11,01,18,27,5.80
2016,11,01,18,28,13.20
2016,11,01,18,29,8.00
2016,11,01,18,30,8.80
2016,11,01,18,31,11.30
2016,11,01,18,32,12.30
2016,11,01,18,33,16.10
2016,11,01,18,34,20.60
2016,11,01,18,35,18.00
2016,11,01,18,36,8.90
2016,11,01,18,37,10.90
2016,11,01,18,38,14.20
2016,11,01,18,39,12.90
2016,11,01,18,40,11.90
2016,11,01,18,41,19.00
2016,11,01,18,42,20.40
2016,11,01,18,43,24.50
2016,11,01,18,44,17.90
2016,11,01,18,45,12.50
2016,11,01,18,46,16.90
2016,11,01,18,47,24.50
2016,11,01,18,48,14.90
2016,11,01,18,49,22.40
2016,11,01,18,50,17.50
2016,11,01,18,51,15.40
2016,11,01,18,52,22.60
2016,11,01,18,53,16.80
2016,11,01,18,54,12.40
2016,11,01,18,55,21.20
2016,11,01,18,56,21.40
2016,11,01,18,57,18.00
2016,11,01,18,58,19.60
2016,11,01,18,59,17.90
2016,11,01,19,00,25.50
2016,11,01,19,01,19.10
2016,11,01,19,02,19.10